| time (UTC) | temp F | wind direction | speed MPH | gust MPH | rain 1hr in | rain 24hr in | rain mn in | humidity % | barometer mb |
| 20260831063020 | 81 | 296 | 1.0 | 2.0 | 0.00 | 0.00 | 0.00 | 67 | 1017.6 |
| 20260831060020 | 79 | 286 | 2.0 | 2.0 | 0.00 | 0.00 | 0.00 | 69 | 1017.3 |
| 20260831053020 | 76 | 302 | 2.0 | 5.0 | 0.00 | 0.00 | 0.00 | 81 | 1017.2 |
| 20260831050019 | 78 | 302 | 3.0 | 6.0 | 0.00 | 0.00 | 0.00 | 69 | 1016.8 |
| 20260831043019 | 79 | 287 | 2.0 | 4.0 | 0.00 | 0.00 | 0.00 | 60 | 1016.6 |
| 20260831040019 | 79 | 29 | 4.0 | 7.0 | 0.00 | 0.00 | 0.00 | 62 | 1016.3 |
| 20260831033048 | 78 | 360 | 5.0 | 6.0 | 0.00 | 0.00 | 0.00 | 72 | 1016.1 |
| 20260831023048 | 77 | 342 | 9.0 | 10.0 | 0.00 | 0.00 | 0.00 | 77 | 1016.4 |
| 20260831020017 | 77 | 355 | 5.0 | 8.0 | 0.00 | 0.00 | 0.00 | 76 | 1016.5 |
| 20260831010047 | 78 | 339 | 8.0 | 10.0 | 0.00 | 0.00 | 0.00 | 76 | 1017.0 |
| 20260831003046 | 78 | 342 | 6.0 | 9.0 | 0.00 | 0.00 | 0.00 | 74 | 1017.5 |
| 20260831000046 | 77 | 337 | 2.0 | 4.0 | 0.00 | 0.00 | 0.00 | 79 | 1018.2 |
| 20260830233046 | 77 | 349 | 3.0 | 4.0 | 0.00 | 0.00 | 0.00 | 81 | 1018.5 |
| 20260830230046 | 77 | 256 | 2.0 | 3.0 | 0.00 | 0.00 | 0.00 | 88 | 1019.0 |
| 20260830223045 | 77 | 277 | 2.0 | 2.0 | 0.00 | 0.00 | 0.00 | 86 | 1019.2 |
| 20260830220045 | 80 | 315 | 3.0 | 5.0 | 0.00 | 0.00 | 0.00 | 79 | 1019.5 |
| 20260830213045 | 82 | 311 | 4.0 | 4.0 | 0.00 | 0.00 | 0.00 | 67 | 1018.7 |
| 20260830193044 | 82 | 331 | 2.0 | 3.0 | 0.00 | 0.00 | 0.00 | 70 | 1017.5 |
| 20260830190043 | 82 | 313 | 5.0 | 8.0 | 0.00 | 0.00 | 0.00 | 66 | 1017.3 |
| 20260830183043 | 83 | 288 | 2.0 | 4.0 | 0.00 | 0.00 | 0.00 | 68 | 1017.0 |
| 20260830180044 | 84 | 307 | 3.0 | 3.0 | 0.00 | 0.00 | 0.00 | 68 | 1016.7 |
| 20260830173042 | 85 | 301 | 2.0 | 3.0 | 0.00 | 0.00 | 0.00 | 67 | 1016.5 |
| 20260830170042 | 87 | 183 | 3.0 | 4.0 | 0.00 | 0.00 | 0.00 | 66 | 1016.7 |
| 20260830163041 | 89 | 304 | 4.0 | 8.0 | 0.00 | 0.00 | 0.00 | 62 | 1016.9 |
| 20260830160041 | 91 | 189 | 5.0 | 7.0 | 0.00 | 0.00 | 0.00 | 58 | 1017.0 |
| 20260830153041 | 92 | 253 | 4.0 | 5.0 | 0.00 | 0.00 | 0.00 | 53 | 1017.0 |
| 20260830150040 | 92 | 190 | 6.0 | 6.0 | 0.00 | 0.00 | 0.00 | 53 | 1017.0 |
| 20260830143040 | 93 | 229 | 3.0 | 6.0 | 0.00 | 0.00 | 0.00 | 55 | 1017.3 |
| 20260830140039 | 95 | 152 | 4.0 | 9.0 | 0.00 | 0.00 | 0.00 | 53 | 1017.5 |
| 20260830133039 | 95 | 204 | 6.0 | 7.0 | 0.00 | 0.00 | 0.00 | 48 | 1017.6 |
| 20260830130039 | 96 | 159 | 8.0 | 8.0 | 0.00 | 0.00 | 0.00 | 49 | 1017.8 |
| 20260830123039 | 96 | 207 | 7.0 | 7.0 | 0.00 | 0.00 | 0.00 | 46 | 1018.0 |
| 20260830120038 | 96 | 195 | 4.0 | 10.0 | 0.00 | 0.00 | 0.00 | 48 | 1018.0 |
| 20260830113038 | 96 | 178 | 5.0 | 6.0 | 0.00 | 0.00 | 0.00 | 49 | 1018.2 |
| 20260830110038 | 95 | 215 | 2.0 | 5.0 | 0.00 | 0.00 | 0.00 | 51 | 1018.3 |
| 20260830100037 | 93 | 132 | 5.0 | 6.0 | 0.00 | 0.00 | 0.00 | 56 | 1018.4 |
| 20260830093037 | 92 | 191 | 3.0 | 6.0 | 0.00 | 0.00 | 0.00 | 58 | 1018.5 |
| 20260830083036 | 88 | 134 | 2.0 | 7.0 | 0.00 | 0.00 | 0.00 | 67 | 1018.5 |
| 20260830080036 | 86 | 111 | 4.0 | 7.0 | 0.00 | 0.00 | 0.00 | 71 | 1018.1 |
| 20260830070035 | 85 | 144 | 2.0 | 3.0 | 0.00 | 0.00 | 0.00 | 73 | 1018.1 |